COSMOS 2251 DEB, 34024

Orbit data source: Space-Track

COSMOS 2251 DEB, 34024 is space debris in LEO originally from a launch on Wed, 16 Jun 1993 UTC launched from the Plesetsk Missile And Space Complex (PKMTR). The debris from Iridium 33, an American commercial communications satellite, has been tracked extensively since its accidental collision with the defunct Russian satellite Cosmos 2251 in 2009. This event, occurring at high speed in low Earth orbit (LEO), generated thousands of pieces of space debris, significantly increasing the risk of further collisions. The Iridium 33 debris cloud has impacted space traffic management and orbital debris mitigation strategies, making it a subject of ongoing study in space situational awareness.

Loading next visibility...
Identifier
34024, 1993-036HK
Orbit
LEO
Country
Flag of CISCIS
Related business
Manufacturer
Unknown
Mission
Spacecraft
Bus & Motor
Unknown
Mass
Unknown
Launch date (UTC)
1993-06-16 (32 years ago)
Launch vehicle
Unknown
Launch site
Plesetsk Missile And Space Complex (PKMTR)
Object type
Payload
Rocket body
Debris
Shape & HBR
Unknown shape, 0.1 m
Radar Cross Section
Small (<0.1 m²)

Expand to show TLE details & history
Last TLE update: 9 hours ago

TLE from 9 hours ago
0 COSMOS 2251 DEB
1 34024U 93036HK  25343.40452775  .00001010  00000-0  35996-3 0  9992
2 34024  74.0463 322.1066 0020883  13.6650 102.5031 14.35390841879768
Epoch: 2025-12-09T09:42Z
TLE epoch observation values (Epoch: 2025-12-09T09:42:31.197Z)
Latitude
59.55747°
Longitude
-110.84963°
Altitude
786.789 km
Speed
7.465 km/s
True Right ascension
07h 32m 40s
True Declination
59° 24' 27"
Sunlit
Object was in full shadow at epoch
Visualization orbit readout
Latitude
Unknown
Longitude
Unknown
Altitude
Unknown
Speed
Unknown
Apparent Right ascension
Unknown
Apparent Declination
Unknown
Sunlit
N/A
Visualization observer readout
Local Sidereal Time
16:35:01
Azimuth
Unknown
Elevation
Unknown
Doppler factor
Unknown
Orbital elements
Apogee altitude
786.322 km
Perigee altitude
756.461 km
Semi-major axis
7,149.529 km
Eccentricity
0.00209
Inclination
74.0463°
RAAN
322.1066°
Arg. of periapsis
13.665°
True anomaly
102.73659°
Mean anomaly
102.5031°
Eccentric anomaly
102.61986°
Mean motion
3.59027 °/min
Orbital period
100.27 mins
BSTAR
0.00035996
Loading maneuver chart data...
Computing Atmospheric mass density...

Documentation

Showing up to 5 results
|